Location: Unspecified
(35.6961°N, 0.0000°E)
Time: 03:18:02
(UTC+00:00)

Altair - Pass Details

Date: 19 May 2019
Orbit: 1501 x 1683 km, 47.2° (Epoch: 18 June)

Event Time Altitude Azimuth Distance (km) Brightness Sun altitude
Rises 07:00:05 0° 272° (W) 4,932 9.6 24.0°
Reaches altitude 10° 07:03:30 10° 278° (W) 3,945 9.2 24.7°
Maximum altitude 07:13:08 45° 350° (N) 2,149 8.6 26.6°
Drops below altitude 10° 07:22:36 10° 61° (ENE) 3,874 10.9 28.5°
Sets 07:25:56 0° 68° (ENE) 4,837 11.2 29.2°
